ORBCOMM FM 16

Satellite information

Favourite Embed

Satellite Type and Status

PAYLOADIN ORBIT

Key statistics

Satellite ORBCOMM FM 16 at a glance.

Uptime

9834

Days in orbit

Revolutions

≈ 14.4

Per day

Orbit

LEO

Low Earth Orbit

Inclination

45.0

Latest

Satellite identification and parameters

Extended collection of information and parameters for ORBCOMM FM 16.

Object identification

Identified? True

Debris? False

Object name: ORBCOMM FM 16

International designator: 1998-046E

Object number (NORAD): 25417

Object ID (CCSDS): 25417

Country: ORBITAL TELECOMMUNICATIONS SATELLITE (GLOBALSTAR) (ORB)

Current information (Y/N): Y

RCS size: MEDIUM

Orbital parameters

Period: 100.073 minutes

Inclination: 44.994 deg

SMA: 7140.117 km

Apoapsis: 766.033 km

Periapsis: 757.93 km

RAAN: 90.428 deg

Eccentricy: 0.0005674

Argument of periapsis: 18.8338 deg

Mean anomaly: 341.272 deg

Mean motion: 14.38946991 rev/day

Mean motion (dot): 0.00000893 rev/day2

B* drag term: 0.00033265 1/REarth

Two-line elements (TLE)

Creation date: July 4, 2025, 6:39 p.m.

Reference frame: TEME

Reference center: EARTH

Epoch: July 4, 2025, 12:59 p.m. UTC

TLE line 0: 0 ORBCOMM FM 16

TLE line 1: 1 25417U 98046E 25185.54100261 .00000893 00000-0 33265-3 0 9998

TLE line 2: 2 25417 44.9940 90.4280 0005674 18.8338 341.2720 14.38946991406752

Live tracking on map

Real-time ground track for satellite ORBCOMM FM 16.

In-orbit conjunctions

There are no conjunctions computed for ORBCOMM FM 16, at the moment. Check back to stay up to date, as we update our databases every day.

Go to all conjunctions

Associated space launch

ORBCOMM FM 16 was lifted into orbit during the mission ‘Pegasus XL HAPS | Orbcomm-B1 - B8’, on board a Pegasus XL HAPS space rocket.

The launch took place on Aug. 2, 1998, 4:24 p.m. from Wallops Flight Facility.

For more information about the launch, click the button.

Launch to space Pegasus XL HAPS | Orbcomm-B1 - B8
Pegasus XL HAPS | Orbcomm-B1 - B8

Agency: N/A

Status: Launch Successful

Launch date: Aug. 2, 1998, 4:24 p.m. UTC

Rocket: Pegasus XL HAPS

Launch pad: Wallops Flight Facility

Location: Air launch to orbit

...

Latest news about this satellite

There are no fresh news available about this satellite. Check back as we update our databases every day.


Newsletter sign-up

Weekly statistics, charts and insights to help you stay on top of the space industry.